Location: Palau
(42.3086°N, 3.1507°E)
Time: 01:14:05
(UTC+00:00)

S3M - Pass Details

Date: 26 May 2020
Orbit: 950 x 1003 km, 83.0° (Epoch: 15 July)

Event Time Altitude Azimuth Distance (km) Brightness Sun altitude
Rises 00:03:26 0° 346° (NNW) 3,637 8.1 -26.4°
Reaches altitude 10° 00:06:00 10° 341° (NNW) 2,691 7.1 -26.3°
Maximum altitude 00:11:50 48° 269° (W) 1,242 4.4 -26.2°
Enters shadow 00:12:35 45° 248° (WSW) 1,280 4.3 -26.2°
